Location: Ferchesar
(52.6477°N, 12.4298°E)
Time: 03:39:18
(UTC+01:00)

Vanguard 1 - Pass Details

Date: 10 December 2021
Orbit: 652 x 3830 km, 34.2° (Epoch: 21 January)

Event Time Altitude Azimuth Distance (km) Brightness Sun altitude
Rises 03:36:58 0° 272° (W) 7,830 - -39.9°
Reaches altitude 10° 03:43:03 10° 265° (W) 6,921 - -39.1°
Exits shadow 04:01:29 33° 213° (SSW) 4,891 13.2 -36.3°
Maximum altitude 04:01:41 33° 212° (SSW) 4,882 13.2 -36.3°
Drops below altitude 10° 04:16:33 10° 157° (SSE) 5,499 14.0 -34.1°
Sets 04:20:42 0° 148° (SSE) 6,101 14.4 -33.4°
